VA3ZFM-10 Weather Reports


time (UTC)temp
F
wind
direction
speed
knots
gust
knots
rain 1hr
in
rain 24hr
in
rain mn
in
humidity
%
barometer
mb
20260507071405 35 158 0.9 2.6 0.00 0.00 0.00 68 1009.3
20260507070901 35 267 0.9 6.1 0.00 0.00 0.00 67 1009.2
20260507070359 35 257 0.0 1.7 0.00 0.00 0.00 68 1009.3
20260507065855 35 277 2.6 5.2 0.00 0.00 0.00 67 1009.2
20260507065352 35 262 0.0 0.9 0.00 0.00 0.00 68 1009.0
20260507064849 35 328 0.9 5.2 0.00 0.00 0.00 67 1009.2
20260507064347 35 257 0.0 1.7 0.00 0.00 0.00 67 1009.2
20260507063845 35 260 0.9 3.5 0.00 0.00 0.00 67 1009.4
20260507063341 35 346 0.9 5.2 0.00 0.00 0.00 66 1009.3
20260507062838 35 314 2.6 3.5 0.00 0.00 0.00 66 1009.2
20260507062335 36 3 0.0 2.6 0.00 0.00 0.00 66 1009.3
20260507061833 36 234 0.9 2.6 0.00 0.00 0.00 65 1009.3
20260507061331 36 310 0.0 5.2 0.00 0.00 0.00 66 1009.3
20260507060829 36 260 1.7 2.6 0.00 0.00 0.00 66 1009.3
20260507060325 36 334 1.7 3.5 0.00 0.00 0.00 66 1009.5
20260507055822 36 241 3.5 3.5 0.00 0.00 0.00 66 1009.3
20260507055317 36 241 0.0 3.5 0.00 0.00 0.00 67 1009.3
20260507054814 36 144 0.0 0.9 0.00 0.00 0.00 67 1009.2
20260507054310 36 304 0.0 0.9 0.00 0.00 0.00 67 1009.3
20260507053808 36 262 0.0 1.7 0.00 0.00 0.00 65 1009.3
20260507053306 36 235 0.0 0.9 0.00 0.00 0.00 65 1009.2
20260507052805 36 272 1.7 3.5 0.00 0.00 0.00 64 1009.5
20260507052300 36 220 1.7 2.6 0.00 0.00 0.00 64 1009.4
20260507051759 36 231 0.9 5.2 0.00 0.00 0.00 64 1009.3
20260507051255 36 186 0.0 3.5 0.00 0.00 0.00 64 1009.3
20260507050752 36 232 0.9 7.0 0.00 0.00 0.00 63 1009.1
20260507050249 36 240 1.7 5.2 0.00 0.00 0.00 63 1009.3
20260507045746 36 227 0.9 5.2 0.00 0.00 0.00 63 1009.1
20260507045241 36 254 0.9 3.5 0.00 0.00 0.00 63 1009.4
20260507044739 36 286 1.7 2.6 0.00 0.00 0.00 63 1009.3
20260507044235 36 52 1.7 1.7 0.00 0.00 0.00 63 1009.2
20260507043732 36 296 0.9 7.8 0.00 0.00 0.00 63 1009.4
20260507043229 36 201 2.6 3.5 0.00 0.00 0.00 63 1009.4
20260507042725 36 229 0.9 1.7 0.00 0.00 0.00 63 1009.3
20260507042220 36 350 0.0 0.0 0.00 0.00 0.00 63 1009.5
20260507041717 36 312 1.7 2.6 0.00 0.00 0.00 63 1009.6
20260507041214 36 223 0.9 2.6 0.00 0.00 0.00 62 1009.3
20260507040711 37 178 0.0 1.7 0.00 0.00 0.00 61 1009.5
20260507040207 37 278 3.5 5.2 0.00 0.00 0.00 61 1009.2
20260507035703 37 244 0.9 3.5 0.00 0.00 0.00 60 1009.2
20260507035159 37 230 0.0 1.7 0.00 0.00 0.00 61 1009.3
20260507034656 37 261 1.7 2.6 0.00 0.00 0.00 60 1009.3
20260507034153 37 197 0.0 2.6 0.00 0.00 0.00 60 1009.3
20260507033652 37 277 0.0 2.6 0.00 0.00 0.00 59 1009.1
20260507033149 37 203 0.0 1.7 0.00 0.00 0.00 60 1009.2
20260507032646 38 53 0.0 0.9 0.00 0.00 0.00 60 1009.3
20260507032142 38 236 1.7 5.2 0.00 0.00 0.00 60 1009.3
20260507031639 38 300 1.7 6.1 0.00 0.00 0.00 60 1009.3
20260507031135 38 115 1.7 3.5 0.00 0.00 0.00 59 1009.5
20260507030632 38 192 0.0 5.2 0.00 0.00 0.00 60 1009.4
20260507030130 38 237 1.7 1.7 0.00 0.00 0.00 59 1009.6
20260507025627 38 204 0.9 3.5 0.00 0.00 0.00 60 1009.4
20260507025124 38 258 1.7 2.6 0.00 0.00 0.00 61 1009.5
20260507024622 39 179 0.0 2.6 0.00 0.00 0.00 62 1009.3
20260507024119 39 247 0.0 0.9 0.00 0.00 0.00 63 1009.2
20260507023614 39 129 0.0 0.0 0.00 0.00 0.00 63 1009.3
20260507023112 39 193 0.0 1.7 0.00 0.00 0.00 63 1009.3
20260507022609 39 200 0.0 0.9 0.00 0.00 0.00 63 1009.2
20260507022104 40 207 0.0 0.9 0.00 0.00 0.00 62 1009.3
20260507021601 40 215 1.7 2.6 0.00 0.00 0.00 61 1009.2
20260507021056 40 320 0.0 0.9 0.00 0.00 0.00 63 1009.4
20260507020555 40 250 0.0 0.9 0.00 0.00 0.00 64 1009.2
20260507020051 40 194 0.0 3.5 0.00 0.00 0.00 64 1009.1
20260507015550 40 210 0.0 3.5 0.00 0.00 0.00 64 1009.2
20260507015047 41 226 1.7 1.7 0.00 0.00 0.00 64 1009.2
20260507014543 41 169 0.0 0.9 0.00 0.00 0.00 66 1009.0
20260507014039 41 179 1.7 2.6 0.00 0.00 0.00 64 1009.0
20260507013536 41 237 0.0 0.0 0.00 0.00 0.00 70 1009.1
20260507013033 41 156 0.0 0.0 0.00 0.00 0.00 75 1008.9
20260507012530 41 148 0.0 0.9 0.00 0.00 0.00 76 1008.9
20260507012026 41 199 0.0 0.9 0.00 0.00 0.00 77 1008.7
20260507011524 41 192 0.0 0.0 0.00 0.00 0.00 77 1008.7
20260507011020 42 203 0.0 0.0 0.00 0.00 0.00 77 1008.9
20260507010514 42 190 0.0 0.0 0.00 0.00 0.00 76 1008.7
20260507010011 42 195 0.0 0.0 0.00 0.00 0.00 75 1008.8
20260507005509 42 186 0.0 0.0 0.00 0.00 0.00 76 1008.8
20260507005005 42 202 0.0 0.0 0.00 0.00 0.00 75 1008.6
20260507004502 42 191 0.0 1.7 0.00 0.00 0.00 75 1008.9
20260507003959 42 213 0.9 1.7 0.00 0.00 0.00 75 1008.7
20260507003454 42 192 0.0 0.9 0.00 0.00 0.00 75 1008.5
20260507002949 43 195 0.0 0.9 0.00 0.00 0.00 74 1008.7
20260507002447 43 195 0.0 0.9 0.00 0.00 0.00 74 1008.7
20260507001943 43 182 0.0 0.0 0.00 0.00 0.00 73 1008.7
20260507001439 44 194 0.9 0.9 0.00 0.00 0.00 73 1008.5
20260507000937 44 182 0.0 1.7 0.00 0.00 0.00 73 1008.6
20260507000435 44 168 0.0 0.9 0.00 0.00 0.00 73 1008.7
20260506235928 44 185 0.0 0.9 0.00 0.00 0.00 73 1008.6
20260506235426 44 208 0.0 0.0 0.00 0.00 0.00 72 1008.3
20260506234921 44 171 0.0 1.7 0.00 0.00 0.00 72 1008.4
20260506234420 44 168 0.0 0.0 0.00 0.00 0.00 71 1008.5
20260506233917 44 297 0.0 0.9 0.00 0.00 0.00 70 1008.4
20260506233413 44 234 0.9 1.7 0.00 0.00 0.00 70 1008.3
20260506232910 45 175 0.0 0.0 0.00 0.00 0.00 71 1008.3
20260506232406 45 134 0.9 0.9 0.00 0.00 0.00 71 1008.4
20260506231902 45 191 0.0 1.7 0.00 0.00 0.00 71 1008.5
20260506231400 46 218 0.9 1.7 0.00 0.00 0.00 70 1008.2
20260506230857 46 217 1.7 2.6 0.00 0.00 0.00 68 1008.2
20260506230354 47 273 0.0 0.9 0.00 0.00 0.00 67 1008.0
20260506225849 46 123 0.0 0.0 0.00 0.00 0.00 69 1008.2
20260506225347 46 200 0.9 1.7 0.00 0.00 0.00 70 1008.3
20260506224839 46 274 0.0 2.6 0.00 0.00 0.00 69 1008.3
20260506224336 46 162 1.7 1.7 0.00 0.00 0.00 69 1008.3
20260506223832 46 222 1.7 2.6 0.00 0.00 0.00 69 1008.2
20260506223327 46 228 0.0 3.5 0.00 0.00 0.00 68 1008.1
20260506222825 47 240 3.5 5.2 0.00 0.00 0.00 68 1008.1
20260506222320 46 212 0.0 0.9 0.00 0.00 0.00 69 1008.0
20260506221818 46 316 3.5 5.2 0.00 0.00 0.00 69 1008.1
20260506221315 46 212 0.9 2.6 0.00 0.00 0.00 70 1008.2
20260506220814 46 223 0.0 1.7 0.00 0.00 0.00 71 1008.4
20260506220313 46 3 0.0 1.7 0.00 0.00 0.00 72 1008.1
20260506215810 46 284 1.7 2.6 0.00 0.00 0.00 73 1008.4
20260506215306 47 258 1.7 1.7 0.00 0.00 0.00 72 1008.2
20260506214802 46 104 0.9 0.9 0.00 0.00 0.00 72 1008.2
20260506214259 46 276 3.5 5.2 0.00 0.00 0.00 72 1008.4
20260506213758 46 214 3.5 6.1 0.00 0.00 0.00 71 1008.5
20260506213254 47 237 0.9 1.7 0.00 0.00 0.00 69 1008.3
20260506212752 47 194 1.7 5.2 0.00 0.00 0.00 69 1008.2
20260506212247 48 311 1.7 6.1 0.00 0.00 0.00 67 1007.9
20260506211742 48 274 0.9 3.5 0.00 0.00 0.00 66 1008.0
20260506211239 48 258 1.7 5.2 0.00 0.00 0.00 65 1008.0
20260506210736 48 233 0.0 5.2 0.00 0.00 0.00 65 1007.9
20260506210233 48 257 0.9 2.6 0.00 0.00 0.00 64 1007.9
20260506205730 48 345 0.0 2.6 0.00 0.00 0.00 64 1008.0
20260506205226 49 234 1.7 3.5 0.00 0.00 0.00 63 1008.0
20260506204723 49 197 1.7 5.2 0.00 0.00 0.00 62 1007.9
20260506204220 50 172 0.9 3.5 0.00 0.00 0.00 62 1007.8
20260506203718 49 178 0.9 5.2 0.00 0.00 0.00 62 1007.7
20260506203215 49 289 1.7 3.5 0.00 0.00 0.00 62 1007.7
20260506202713 50 51 0.0 3.5 0.00 0.00 0.00 61 1007.8
20260506202209 50 145 0.0 2.6 0.00 0.00 0.00 60 1007.6
20260506201706 50 220 0.9 2.6 0.00 0.00 0.00 60 1007.6
20260506201203 50 223 1.7 6.1 0.00 0.00 0.00 59 1007.7
20260506200659 50 134 0.9 5.2 0.00 0.00 0.00 60 1007.9
20260506200156 50 196 0.9 2.6 0.00 0.00 0.00 59 1007.6
20260506195653 50 207 1.7 3.5 0.00 0.00 0.00 59 1007.7
20260506195149 51 265 2.6 3.5 0.00 0.00 0.00 57 1007.8
20260506194647 51 193 0.9 3.5 0.00 0.00 0.00 57 1007.9
20260506194142 51 229 0.0 1.7 0.00 0.00 0.00 58 1007.7
20260506193641 50 218 1.7 2.6 0.00 0.00 0.00 58 1007.7
20260506193137 50 310 3.5 8.7 0.00 0.00 0.00 60 1007.7
20260506192634 50 234 1.7 3.5 0.00 0.00 0.00 59 1007.9
20260506192130 49 199 0.9 1.7 0.00 0.00 0.00 60 1007.8
20260506191627 50 249 0.9 1.7 0.00 0.00 0.00 58 1008.0
20260506191123 49 206 0.9 1.7 0.00 0.00 0.00 59 1008.0
20260506190621 50 217 0.9 5.2 0.00 0.00 0.00 58 1007.8
20260506190118 50 243 0.9 3.5 0.00 0.00 0.00 58 1008.0
20260506185615 49 244 0.9 3.5 0.00 0.00 0.00 58 1007.9
20260506185110 50 164 0.9 5.2 0.00 0.00 0.00 57 1007.7
20260506184609 50 240 0.0 3.5 0.00 0.00 0.00 56 1007.7
20260506184106 50 198 2.6 7.0 0.00 0.00 0.00 56 1007.7
20260506183602 50 290 0.9 5.2 0.00 0.00 0.00 56 1007.9
20260506183058 50 231 1.7 3.5 0.00 0.00 0.00 56 1007.7
20260506182555 50 255 2.6 5.2 0.00 0.00 0.00 56 1007.7
20260506182052 49 292 0.9 3.5 0.00 0.00 0.00 58 1007.6
20260506181551 49 177 2.6 2.6 0.00 0.00 0.00 58 1007.7
20260506181047 49 239 0.9 5.2 0.00 0.00 0.00 60 1007.8
20260506180543 49 231 1.7 1.7 0.00 0.00 0.00 58 1008.0
20260506180040 49 135 2.6 2.6 0.00 0.00 0.00 59 1008.0
20260506175537 49 200 0.0 1.7 0.00 0.00 0.00 59 1007.8
20260506175033 50 215 0.9 1.7 0.00 0.00 0.00 58 1007.8
20260506174532 50 327 0.9 1.7 0.00 0.00 0.00 58 1007.9
20260506174027 50 172 2.6 3.5 0.00 0.00 0.00 58 1007.8
20260506173525 49 199 0.0 1.7 0.00 0.00 0.00 59 1007.9
20260506173022 49 247 0.9 1.7 0.00 0.00 0.00 60 1007.9
20260506172519 48 205 0.0 1.7 0.00 0.00 0.00 62 1008.1
20260506172016 48 204 1.7 1.7 0.00 0.00 0.00 62 1008.3
20260506171513 47 182 0.0 1.7 0.00 0.00 0.00 63 1008.0
20260506171011 47 163 0.0 2.6 0.00 0.00 0.00 63 1008.2
20260506170508 48 206 1.7 2.6 0.00 0.00 0.00 62 1008.1
20260506170006 48 201 0.9 3.5 0.00 0.00 0.00 62 1008.2
20260506165504 48 208 0.0 3.5 0.00 0.00 0.00 61 1008.0
20260506164959 48 155 0.9 2.6 0.00 0.00 0.00 61 1008.3
20260506164456 48 243 0.9 1.7 0.00 0.00 0.00 61 1008.2
20260506163954 48 202 0.9 1.7 0.00 0.00 0.00 61 1008.0
20260506163449 48 164 0.0 2.6 0.00 0.00 0.00 60 1008.0
20260506162944 48 217 0.0 0.9 0.00 0.00 0.00 59 1008.0
20260506162442 48 214 0.0 0.9 0.00 0.00 0.00 58 1008.1
20260506161939 48 131 0.0 1.7 0.00 0.00 0.00 58 1007.9
20260506161437 48 210 0.9 2.6 0.00 0.00 0.00 57 1007.9
20260506160934 48 160 0.9 1.7 0.00 0.00 0.00 56 1008.2
20260506160431 48 212 1.7 2.6 0.00 0.00 0.00 55 1008.0
20260506155929 48 232 1.7 1.7 0.00 0.00 0.00 55 1008.0
20260506155427 49 197 0.0 3.5 0.00 0.00 0.00 54 1007.6
20260506153548 48 202 0.0 0.9 0.00 0.00 0.00 56 1007.6
20260506153045 49 158 0.9 1.7 0.00 0.00 0.00 56 1007.7
20260506152542 49 186 0.0 0.9 0.00 0.00 0.00 56 1007.7
20260506152040 49 195 0.9 3.5 0.00 0.00 0.00 57 1007.9
20260506151538 49 175 0.9 1.7 0.00 0.00 0.00 55 1008.0
20260506151035 48 87 0.0 0.9 0.00 0.00 0.00 56 1007.8
20260506150531 48 172 0.0 1.7 0.00 0.00 0.00 56 1007.7
20260506150028 48 214 1.7 1.7 0.00 0.00 0.00 58 1007.9
20260506145525 48 246 0.0 0.9 0.00 0.00 0.00 57 1008.1
20260506145023 48 218 0.0 2.6 0.00 0.00 0.00 57 1007.9
20260506144519 48 160 0.0 1.7 0.00 0.00 0.00 59 1008.0
20260506144017 48 256 0.0 5.2 0.00 0.00 0.00 58 1007.9
20260506143514 48 183 0.9 1.7 0.00 0.00 0.00 61 1007.9
20260506143013 48 242 1.7 3.5 0.00 0.00 0.00 62 1008.1
20260506142510 47 190 0.9 2.6 0.00 0.00 0.00 63 1008.3
20260506142008 48 176 0.9 2.6 0.00 0.00 0.00 63 1008.2
20260506141505 47 157 0.9 1.7 0.00 0.00 0.00 65 1008.6
20260506141003 47 205 0.9 0.9 0.00 0.00 0.00 65 1008.1
20260506140500 46 159 0.0 1.7 0.00 0.00 0.00 66 1008.2
20260506135957 46 198 0.9 1.7 0.00 0.00 0.00 67 1008.5
20260506135454 46 170 0.0 1.7 0.00 0.00 0.00 69 1008.5
20260506134950 46 187 0.0 0.0 0.00 0.00 0.00 69 1008.6
20260506134446 47 162 0.0 1.7 0.00 0.00 0.00 68 1008.3
20260506133943 46 179 0.9 2.6 0.00 0.00 0.00 70 1008.3
20260506133440 45 200 0.0 1.7 0.00 0.00 0.00 71 1008.4
20260506132937 44 213 0.0 0.9 0.00 0.00 0.00 71 1008.2
20260506132434 44 168 0.0 0.0 0.00 0.00 0.00 71 1008.1
20260506131932 44 249 0.9 1.7 0.00 0.00 0.00 71 1008.0
20260506131428 45 207 0.0 0.9 0.00 0.00 0.00 71 1007.9
20260506130925 45 330 0.0 0.9 0.00 0.00 0.00 72 1008.1
20260506130421 44 262 0.9 1.7 0.00 0.00 0.00 71 1008.2
20260506125920 44 173 0.0 0.9 0.00 0.00 0.00 73 1008.2
20260506125418 43 310 0.0 0.9 0.00 0.00 0.00 74 1008.2
20260506124916 44 171 0.0 0.0 0.00 0.00 0.00 74 1008.3
20260506124413 43 210 0.0 1.7 0.00 0.00 0.00 75 1008.5
20260506123910 43 197 0.0 0.9 0.00 0.00 0.00 75 1008.1
20260506123408 43 187 0.0 0.9 0.00 0.00 0.00 75 1008.0
20260506122906 43 99 0.0 0.0 0.00 0.00 0.00 75 1008.3
20260506122402 43 131 0.0 1.7 0.00 0.00 0.00 75 1008.3
20260506121900 42 241 0.0 0.9 0.00 0.00 0.00 76 1008.4
20260506121357 42 194 0.0 0.9 0.00 0.00 0.00 76 1008.2
20260506120854 42 199 0.0 0.0 0.00 0.00 0.00 76 1008.4
20260506120352 42 160 0.0 0.0 0.00 0.00 0.00 77 1008.4
20260506115849 41 40 0.0 0.0 0.00 0.00 0.00 78 1008.4
20260506115347 41 242 0.9 1.7 0.00 0.00 0.00 78 1008.4
20260506114845 40 9 0.0 0.0 0.00 0.00 0.00 79 1008.3
20260506114342 40 111 0.0 0.0 0.00 0.00 0.00 79 1008.1
20260506113841 40 119 0.0 0.0 0.00 0.00 0.00 79 1008.2
20260506113338 40 124 0.0 0.0 0.00 0.00 0.00 79 1007.9
20260506112834 40 164 0.0 0.0 0.00 0.00 0.00 78 1008.2
20260506112332 40 165 0.0 0.0 0.00 0.00 0.00 78 1007.9
20260506111829 40 165 0.0 0.0 0.00 0.00 0.00 78 1007.9
20260506111327 40 165 0.0 0.0 0.00 0.00 0.00 76 1008.0
20260506110824 40 165 0.0 0.0 0.00 0.00 0.00 76 1008.1
20260506110321 40 165 0.0 0.0 0.00 0.00 0.00 78 1007.9
20260506105818 40 165 0.0 0.0 0.00 0.00 0.00 78 1007.9
20260506105314 40 166 0.0 0.0 0.00 0.00 0.00 77 1007.6
20260506104812 40 166 0.0 0.0 0.00 0.00 0.00 77 1008.0
20260506104310 40 166 0.0 0.0 0.00 0.00 0.00 77 1008.0
20260506103807 40 166 0.0 0.0 0.00 0.00 0.00 76 1008.1
20260506103305 40 166 0.0 0.0 0.00 0.00 0.00 75 1008.0
20260506102802 40 166 0.0 0.0 0.00 0.00 0.00 72 1007.9
20260506102300 40 170 0.0 0.9 0.00 0.00 0.00 72 1007.6
20260506101757 40 169 0.0 0.0 0.00 0.00 0.00 71 1008.0
20260506101253 40 163 0.0 0.0 0.00 0.00 0.00 72 1007.8
20260506100751 40 168 0.0 0.0 0.00 0.00 0.00 73 1008.1
20260506100249 40 167 0.0 0.0 0.00 0.00 0.00 73 1008.0
20260506095747 40 169 0.0 0.0 0.00 0.00 0.00 74 1007.9
20260506095244 40 169 0.0 0.0 0.00 0.00 0.00 74 1007.9
20260506094740 40 169 0.0 0.0 0.00 0.00 0.00 74 1007.9
20260506094239 40 169 0.0 0.0 0.00 0.00 0.00 74 1007.9
20260506093737 40 169 0.0 0.0 0.00 0.00 0.00 75 1007.9
20260506093234 40 169 0.0 0.0 0.00 0.00 0.00 73 1008.2
20260506092731 40 169 0.0 0.0 0.00 0.00 0.00 74 1007.9
20260506092229 40 170 0.0 0.0 0.00 0.00 0.00 73 1008.0
20260506091726 40 170 0.0 0.0 0.00 0.00 0.00 73 1008.3
20260506091224 40 170 0.0 0.0 0.00 0.00 0.00 72 1008.1
20260506090721 40 192 0.0 0.0 0.00 0.00 0.00 73 1008.4
20260506090218 40 152 0.0 0.0 0.00 0.00 0.00 71 1008.7
20260506085715 40 128 0.0 0.0 0.00 0.00 0.00 69 1008.2
20260506085211 40 128 0.0 0.0 0.00 0.00 0.00 68 1008.2
20260506084708 40 128 0.0 0.0 0.00 0.00 0.00 69 1007.8
20260506084204 40 128 0.0 0.0 0.00 0.00 0.00 67 1007.9
20260506083701 40 126 0.0 0.0 0.00 0.00 0.00 68 1008.2
20260506083159 40 126 0.0 0.0 0.00 0.00 0.00 68 1007.8
20260506082656 40 126 0.0 0.0 0.00 0.00 0.00 70 1007.7
20260506082156 40 126 0.0 0.0 0.00 0.00 0.00 68 1007.8
20260506081655 40 126 0.0 0.0 0.00 0.00 0.00 71 1007.8
20260506081152 40 126 0.0 0.0 0.00 0.00 0.00 69 1007.7
20260506080650 40 126 0.0 0.0 0.00 0.00 0.00 69 1007.7
20260506080146 40 126 0.0 0.0 0.00 0.00 0.00 67 1007.8
20260506073130 40 149 0.0 0.0 0.00 0.00 0.00 68 1008.2
20260506072627 40 148 0.0 0.0 0.00 0.00 0.00 67 1007.9
20260506072125 41 147 0.0 0.0 0.00 0.00 0.00 68 1008.2